When you browse on this site, cookies collect data to enhance your experience and personalize the content and advertising you see.
Visit our Privacy Policy to learn more. By continuing to use the site, you agree to this use of cookies and data.
  • Em Portugal
  • Lista de países
  • Para 7 dias
  • Temperatura da água
  • Mapas de satélite
  • Mapa do tempo
  • Widgets de tempo
  • user-avatar
    Iniciar Sessão

    Previsão horária em Janiki

    Hoje, 21 Novembro, Quarta-feira

    Tempo Temperatura Precipitação Vento Pressão Humidade
    00:00 -3°C° 0.1 mm 6 m/s 750 mmHg 73%
    01:00 -4°C° 0 mm 5 m/s 750 mmHg 81%
    02:00 -4°C° 0 mm 5 m/s 750 mmHg 81%
    03:00 -4°C° 0 mm 6 m/s 750 mmHg 82%
    04:00 -4°C° 0 mm 6 m/s 750 mmHg 83%
    05:00 -4°C° 0 mm 6 m/s 750 mmHg 84%
    06:00 -4°C° 0 mm 6 m/s 750 mmHg 84%
    07:00 -4°C° 0 mm 5 m/s 750 mmHg 85%
    08:00 -3°C° 0 mm 6 m/s 750 mmHg 84%
    09:00 -3°C° 0 mm 6 m/s 750 mmHg 82%
    10:00 -2°C° 0 mm 6 m/s 750 mmHg 81%
    11:00 -2°C° 0 mm 6 m/s 750 mmHg 81%
    12:00 -2°C° 0 mm 6 m/s 750 mmHg 80%
    13:00 0°C° 0 mm 5 m/s 750 mmHg 79%
    14:00 -1°C° 0 mm 5 m/s 751 mmHg 80%
    15:00 -1°C° 0 mm 5 m/s 751 mmHg 82%
    16:00 -1°C° 0 mm 5 m/s 751 mmHg 83%
    17:00 -1°C° 0 mm 5 m/s 751 mmHg 83%
    18:00 -2°C° 0 mm 5 m/s 751 mmHg 84%
    19:00 -2°C° 0 mm 5 m/s 751 mmHg 84%
    20:00 -4°C° 0 mm 5 m/s 752 mmHg 85%
    21:00 -4°C° 0 mm 5 m/s 752 mmHg 86%
    22:00 -3°C° 0 mm 4 m/s 752 mmHg 87%
    23:00 -3°C° 0 mm 4 m/s 752 mmHg 88%

    Amanhã, 22 Novembro, Quinta-feira

    Tempo Temperatura Precipitação Vento Pressão Humidade
    00:00 -4°C° 0 mm 4 m/s 752 mmHg 89%
    01:00 -4°C° 0 mm 4 m/s 752 mmHg 90%
    02:00 -4°C° 0 mm 4 m/s 752 mmHg 89%
    03:00 -4°C° 0 mm 4 m/s 752 mmHg 89%
    04:00 -4°C° 0 mm 4 m/s 752 mmHg 89%
    05:00 -4°C° 0 mm 4 m/s 752 mmHg 89%
    06:00 -4°C° 0 mm 4 m/s 752 mmHg 89%
    07:00 -4°C° 0 mm 4 m/s 752 mmHg 89%
    08:00 -4°C° 0 mm 4 m/s 752 mmHg 85%
    09:00 -3°C° 0 mm 4 m/s 753 mmHg 81%
    10:00 -2°C° 0 mm 4 m/s 753 mmHg 77%
    11:00 -1°C° 0 mm 4 m/s 753 mmHg 74%
    12:00 0°C° 0 mm 4 m/s 753 mmHg 72%
    13:00 +1°C° 0 mm 3 m/s 753 mmHg 69%
    14:00 0°C° 0 mm 3 m/s 753 mmHg 74%
    15:00 -1°C° 0 mm 3 m/s 753 mmHg 79%
    16:00 -2°C° 0 mm 2 m/s 753 mmHg 84%
    17:00 -2°C° 0 mm 2 m/s 753 mmHg 84%
    18:00 -2°C° 0 mm 2 m/s 753 mmHg 85%
    19:00 -3°C° 0 mm 2 m/s 753 mmHg 86%
    20:00 -3°C° 0 mm 2 m/s 753 mmHg 86%
    21:00 -3°C° 0 mm 2 m/s 753 mmHg 85%
    22:00 -3°C° 0 mm 2 m/s 753 mmHg 85%
    23:00 -3°C° 0 mm 2 m/s 753 mmHg 85%

    Depois de amanhã, 23 Novembro, Sexta-feira

    Tempo Temperatura Precipitação Vento Pressão Humidade
    00:00 -3°C° 0 mm 2 m/s 753 mmHg 85%
    01:00 -3°C° 0 mm 2 m/s 753 mmHg 85%
    02:00 -3°C° 0 mm 2 m/s 753 mmHg 84%
    03:00 -3°C° 0 mm 2 m/s 753 mmHg 84%
    04:00 -3°C° 0 mm 2 m/s 753 mmHg 84%
    05:00 -3°C° 0 mm 2 m/s 753 mmHg 84%
    06:00 -3°C° 0 mm 2 m/s 753 mmHg 84%
    07:00 -3°C° 0 mm 2 m/s 754 mmHg 84%
    08:00 -2°C° 0 mm 2 m/s 754 mmHg 80%
    09:00 +1°C° 0 mm 2 m/s 754 mmHg 76%
    10:00 +2°C° 0 mm 2 m/s 754 mmHg 72%
    11:00 +3°C° 0 mm 2 m/s 754 mmHg 72%
    12:00 +4°C° 0 mm 2 m/s 753 mmHg 71%
    13:00 +4°C° 0 mm 2 m/s 753 mmHg 71%
    14:00 +3°C° 0 mm 2 m/s 753 mmHg 77%
    15:00 +2°C° 0 mm 2 m/s 753 mmHg 82%
    16:00 +1°C° 0 mm 2 m/s 752 mmHg 87%
    17:00 +1°C° 0 mm 2 m/s 752 mmHg 89%
    18:00 +1°C° 0 mm 2 m/s 752 mmHg 91%
    19:00 0°C° 0 mm 3 m/s 752 mmHg 92%
    20:00 0°C° 0 mm 3 m/s 752 mmHg 93%
    21:00 0°C° 0 mm 3 m/s 751 mmHg 93%
    22:00 0°C° 0 mm 3 m/s 751 mmHg 94%
    23:00 0°C° 0 mm 3 m/s 751 mmHg 94%

    24 Novembro, Sábado

    Tempo Temperatura Precipitação Vento Pressão Humidade
    00:00 0°C° 0 mm 3 m/s 750 mmHg 93%
    01:00 0°C° 0 mm 3 m/s 750 mmHg 93%
    02:00 0°C° 0 mm 3 m/s 750 mmHg 93%
    03:00 0°C° 0 mm 3 m/s 749 mmHg 93%
    04:00 +1°C° 0 mm 3 m/s 749 mmHg 94%
    05:00 +1°C° 0 mm 3 m/s 748 mmHg 94%
    06:00 +1°C° 0 mm 3 m/s 748 mmHg 94%
    07:00 +1°C° 0 mm 3 m/s 748 mmHg 94%
    08:00 +2°C° 0.1 mm 3 m/s 747 mmHg 92%
    09:00 +3°C° 0.1 mm 3 m/s 747 mmHg 91%
    10:00 +4°C° 0.1 mm 3 m/s 747 mmHg 90%
    11:00 +4°C° 0.5 mm 3 m/s 747 mmHg 90%
    12:00 +4°C° 0.5 mm 3 m/s 746 mmHg 91%
    13:00 +4°C° 0.5 mm 3 m/s 746 mmHg 92%
    14:00 +4°C° 0.4 mm 3 m/s 745 mmHg 92%
    15:00 +4°C° 0.4 mm 3 m/s 745 mmHg 92%
    16:00 +4°C° 0.4 mm 3 m/s 745 mmHg 93%
    17:00 +4°C° 0.4 mm 3 m/s 745 mmHg 93%
    18:00 +4°C° 0.4 mm 3 m/s 744 mmHg 93%
    19:00 +4°C° 0.4 mm 3 m/s 744 mmHg 93%
    20:00 +4°C° 0.2 mm 3 m/s 744 mmHg 93%
    21:00 +4°C° 0.2 mm 3 m/s 744 mmHg 94%
    22:00 +4°C° 0.2 mm 3 m/s 744 mmHg 94%
    23:00 +4°C° 0.1 mm 3 m/s 744 mmHg 95%

    25 Novembro, Domingo

    Tempo Temperatura Precipitação Vento Pressão Humidade
    00:00 +3°C° 0.1 mm 3 m/s 744 mmHg 95%
    01:00 +3°C° 0.1 mm 3 m/s 744 mmHg 96%
    02:00 +3°C° 0.1 mm 3 m/s 744 mmHg 96%
    03:00 +4°C° 0.1 mm 2 m/s 744 mmHg 96%
    04:00 +4°C° 0.1 mm 2 m/s 744 mmHg 96%
    05:00 +4°C° 0 mm 2 m/s 744 mmHg 95%
    06:00 +3°C° 0 mm 2 m/s 744 mmHg 95%
    07:00 +3°C° 0 mm 2 m/s 744 mmHg 94%
    08:00 +3°C° 0 mm 2 m/s 744 mmHg 92%
    09:00 +5°C° 0 mm 1 m/s 744 mmHg 90%
    10:00 +5°C° 0 mm 1 m/s 744 mmHg 87%
    11:00 +5°C° 0 mm 1 m/s 744 mmHg 86%
    12:00 +5°C° 0 mm 1 m/s 744 mmHg 84%
    13:00 +6°C° 0 mm 1 m/s 744 mmHg 82%
    14:00 +5°C° 0 mm 1 m/s 744 mmHg 83%
    15:00 +5°C° 0 mm 1 m/s 744 mmHg 84%
    16:00 +5°C° 0 mm 1 m/s 744 mmHg 86%
    17:00 +5°C° 0 mm 1 m/s 744 mmHg 85%
    18:00 +5°C° 0 mm 1 m/s 744 mmHg 85%
    19:00 +4°C° 0 mm 1 m/s 744 mmHg 85%
    20:00 +4°C° 0 mm 1 m/s 744 mmHg 86%
    21:00 +4°C° 0 mm 1 m/s 744 mmHg 86%
    22:00 +4°C° 0 mm 1 m/s 744 mmHg 86%
    23:00 +4°C° 0 mm 1 m/s 744 mmHg 87%

    26 Novembro, Segunda-feira

    Tempo Temperatura Precipitação Vento Pressão Humidade
    00:00 +4°C° 0 mm 1 m/s 744 mmHg 87%
    01:00 +4°C° 0 mm 1 m/s 743 mmHg 87%
    02:00 +4°C° 0 mm 1 m/s 743 mmHg 88%
    03:00 +4°C° 0 mm 1 m/s 743 mmHg 88%
    04:00 +3°C° 0 mm 1 m/s 743 mmHg 89%
    05:00 +2°C° 0.1 mm 2 m/s 743 mmHg 89%
    06:00 +2°C° 0.1 mm 2 m/s 744 mmHg 90%
    07:00 +2°C° 0.1 mm 2 m/s 744 mmHg 91%
    08:00 +2°C° 0.1 mm 2 m/s 744 mmHg 89%
    09:00 +1°C° 0.1 mm 3 m/s 744 mmHg 87%
    10:00 +1°C° 0.1 mm 3 m/s 745 mmHg 85%
    11:00 +1°C° 0 mm 3 m/s 745 mmHg 82%
    12:00 0°C° 0 mm 4 m/s 745 mmHg 79%
    13:00 0°C° 0 mm 4 m/s 745 mmHg 77%
    14:00 0°C° 0 mm 3 m/s 745 mmHg 77%
    15:00 0°C° 0 mm 3 m/s 745 mmHg 78%
    16:00 -1°C° 0 mm 3 m/s 745 mmHg 79%
    17:00 -2°C° 0 mm 3 m/s 745 mmHg 79%
    18:00 -2°C° 0 mm 3 m/s 746 mmHg 80%
    19:00 -4°C° 0 mm 3 m/s 746 mmHg 80%
    20:00 -4°C° 0 mm 3 m/s 746 mmHg 80%
    21:00 -4°C° 0 mm 3 m/s 747 mmHg 80%
    22:00 -4°C° 0 mm 2 m/s 747 mmHg 80%
    23:00 -4°C° 0 mm 2 m/s 747 mmHg 80%
    Mostrar mais